Location: Unspecified
(0.0000°N, 0.0000°E)
Time: 14:18:05
(UTC+00:00)

Explorer 11/Cluster Stage 4 - Visible Passes

Search period start: 31 August 2016 00:00
Search period end: 10 September 2016 00:00
Orbit: 467 x 1265 km, 28.8° (Epoch: 30 August)

Date Brightness Start Highest point End Pass type
(mag) Time Alt. Az. Time Alt. Az. Time Alt. Az.
31 Aug 7.5 18:21:52 10° NW 18:29:06 75° NNE 18:37:21 10° ESE visible
31 Aug 8.4 20:11:33 10° W 20:18:47 38° SSW 20:19:51 37° SSW visible
01 Sep 7.5 05:28:00 10° SW 05:32:16 30° SSE 05:35:52 10° E visible
01 Sep 7.4 18:12:11 10° WNW 18:19:15 87° NNE 18:27:28 10° ESE visible
01 Sep 8.6 20:02:10 10° W 20:08:59 32° SSW 20:11:04 29° S visible
02 Sep 7.1 05:17:57 10° SW 05:22:45 40° SSE 05:26:41 10° E visible
02 Sep 8.9 19:52:53 10° W 19:59:15 28° SSW 20:02:16 22° S visible
03 Sep 9.1 03:26:02 12° SE 03:26:02 12° SE 03:26:48 10° SE visible
03 Sep 6.7 05:08:16 11° SW 05:13:12 54° SSE 05:17:24 10° ENE visible
03 Sep 9.0 19:43:43 10° WSW 19:49:32 23° SSW 19:53:27 17° SSE visible
04 Sep 9.1 03:17:14 13° ESE 03:17:14 13° ESE 03:18:10 10° ESE visible
04 Sep 6.4 04:59:28 17° SW 05:03:38 73° SSE 05:08:03 10° ENE visible
04 Sep 9.2 19:34:42 10° WSW 19:39:53 20° SSW 19:44:36 12° SSE visible
05 Sep 9.2 03:08:27 13° ESE 03:08:27 13° ESE 03:09:17 10° ESE visible
05 Sep 6.3 04:50:41 25° WSW 04:54:00 87° NNW 04:58:36 10° ENE visible
05 Sep 9.4 19:25:50 10° WSW 19:30:16 17° SSW 19:35:01 10° SSE visible
06 Sep 9.4 02:59:40 13° E 02:59:40 13° E 03:00:13 10° E visible
06 Sep 6.4 04:41:54 34° WSW 04:44:21 69° NNW 04:49:06 10° NE visible
06 Sep 9.5 19:17:13 10° SW 19:20:42 14° SSW 19:24:24 10° S visible
07 Sep 9.6 02:50:52 11° E 02:50:52 11° E 02:51:02 10° E visible
07 Sep 6.7 04:33:06 42° W 04:34:40 55° NNW 04:39:31 10° NE visible
07 Sep 9.5 19:09:05 10° SSW 19:11:11 11° SSW 19:13:22 10° S visible
08 Sep 7.1 04:24:17 43° NW 04:24:56 45° NNW 04:29:53 10° NE visible
09 Sep 7.4 04:15:25 37° NNW 04:15:25 37° NNW 04:20:12 10° NE visible
